Preview of NWS' New Version of Forecast
This preview is not operational and should not be used for support decisions.

Regional Weather Roundup (RWR)

Issued by National Weather Service (NWS)

                            
000
ASUS43 KMKX 190000
RWRWI 

WISCONSIN REGIONAL WEATHER ROUNDUP
NATIONAL WEATHER SERVICE MILWAUKEE/SULLIVAN WI
700 PM CDT THU JUL 18 2019

NOTE: "FAIR" INDICATES FEW OR NO CLOUDS BELOW 12,000 FEET WITH NO
SIGNIFICANT WEATHER AND/OR OBSTRUCTIONS TO VISIBILITY.

WIZ001-002-006>008-014>016-023>028-190100-
NORTHWEST WISCONSIN
  
CITY           SKY/WX    TMP DP  RH WIND       PRES   REMARKS
SUPERIOR ARPT  FAIR      85  66  52 W12       29.59S HX  87           
6HR MIN TEMP:  78; 6HR MAX TEMP:  88;                                

ASHLAND        FAIR      81  72  74 S16       29.62R HX  85           
6HR MIN TEMP:  70; 6HR MAX TEMP:  83; 6HR PCP:  0.50;                

HAYWARD        FAIR      81  73  76 SW12G18   29.68S HX  86           
6HR MIN TEMP:  80; 6HR MAX TEMP:  83;                                

SIREN          FAIR      82  70  68 SW9       29.67F HX  85           
CUMBERLAND     PTSUNNY   75  72  88 SW3       29.69F                  
RICE LAKE      FAIR      78  76  93 CALM      29.70S HX  80           
6HR MIN TEMP:  76; 6HR MAX TEMP:  78;                                

CHETEK         FAIR      79  75  86 S3        29.69F HX  83           
6HR MIN TEMP:  77; 6HR MAX TEMP:  80;                                

LADYSMITH      FAIR      78  72  81 S6        29.72S HX  80           
6HR MIN TEMP:  77; 6HR MAX TEMP:  82;                                

EAU CLAIRE     NOT AVBL                                               
MENOMONIE      FAIR      80  71  74 S5        29.67F HX  83           
6HR MIN TEMP:  74; 6HR MAX TEMP:  82;                                

NEW RICHMOND   FAIR      84  73  67 SW3       29.67F HX  90           
6HR MIN TEMP:  77; 6HR MAX TEMP:  84;                                

OSCEOLA        FAIR      83  74  76 S5        29.69F HX  89           
6HR MIN TEMP:  78; 6HR MAX TEMP:  84;                                

$$
 
WIZ003>005-009-010-017-018-190100-
NORTH CENTRAL WISCONSIN
  
CITY           SKY/WX    TMP DP  RH WIND       PRES   REMARKS
MANITOWISH WTR PTSUNNY   77  70  78 SW10G17   29.70R                  
6HR MIN TEMP:  74; 6HR MAX TEMP:  82;                                

ARBOR VITAE    FAIR      80  70  73 W10G17    29.71R HX  83           
WOODRUFF       FAIR      80  70  73 W10G17    29.71R HX  83           
RHINELANDER    PTSUNNY   78  68  71 SW13G23   29.73R HX  80           
6HR MIN TEMP:  77; 6HR MAX TEMP:  85;                                

EAGLE RIVER    PTSUNNY   77  67  69 SW15      29.70R                  
6HR MIN TEMP:  76; 6HR MAX TEMP:  83;                                

LAND O LAKES   FAIR      79  68  69 SW6G16    29.71S HX  81           
6HR MIN TEMP:  74; 6HR MAX TEMP:  83;                                

PHILLIPS       FAIR      76  71  85 SW12      29.70F                  
6HR MIN TEMP:  76; 6HR MAX TEMP:  82;                                

TOMAHAWK       FAIR      75  69  80 SW3       29.73R                  
MEDFORD        CLOUDY    76  71  84 SW9       29.72F                  
6HR MIN TEMP:  74; 6HR MAX TEMP:  78;                                

MERRILL        PTSUNNY   77  73  88 SW6       29.73S                  
6HR MIN TEMP:  77; 6HR MAX TEMP:  82;                                

$$
 
WIZ029-030-035-036-043>047-190100-
CENTRAL WISCONSIN
  
CITY           SKY/WX    TMP DP  RH WIND       PRES   REMARKS
WAUSAU         PTSUNNY   77  72  84 W6        29.72R                  
6HR MIN TEMP:  76; 6HR MAX TEMP:  80; 6HR PCP: TRACE;                

MOSINEE        MOSUNNY   77  73  88 SW9       29.74F                  
MARSHFIELD     FAIR      79  73  82 W6        29.72S HX  82           
6HR MIN TEMP:  77; 6HR MAX TEMP:  81;                                

STEVENS POINT  PTSUNNY   80  73  81 W8        29.73F HX  84           
6HR MIN TEMP:  75; 6HR MAX TEMP:  80;                                

WAUPACA        FAIR      84  75  75 SW7       29.72S HX  92           
6HR MIN TEMP:  80; 6HR MAX TEMP:  85;                                

WAUTOMA        PTSUNNY   82  75  79 SW8       29.72S HX  89           
6HR MIN TEMP:  77; 6HR MAX TEMP:  84;                                

WISC RAPIDS    PTSUNNY   82  74  76 SW7       29.73S HX  88           
6HR MIN TEMP:  78; 6HR MAX TEMP:  83;                                

CAMP DOUGLAS   NOT AVBL                                               
$$
 
WIZ011>013-019>022-031-037>040-048>050-190100-
NORTHEAST WISCONSIN
  
CITY           SKY/WX    TMP DP  RH WIND       PRES   REMARKS
ANTIGO         PTSUNNY   74  73  94 W10       29.74F                  
6HR MIN TEMP:  73; 6HR MAX TEMP:  80;                                

SHAWANO        PTSUNNY   81  73  78 SW9       29.70F HX  86           
6HR MIN TEMP:  79; 6HR MAX TEMP:  82;                                

OCONTO         PTSUNNY   77  72  84 SW3       29.70R                  
6HR MIN TEMP:  77; 6HR MAX TEMP:  80;                                

STURGEON BAY   CLOUDY    78  72  81 SW8       29.71S HX  80           
6HR MIN TEMP:  76; 6HR MAX TEMP:  80; 6HR PCP:  0.02;                

GREEN BAY      CLOUDY    82  74  76 SW8       29.71R HX  88           
6HR MIN TEMP:  77; 6HR MAX TEMP:  83;                                

MANITOWOC      FAIR      84  74  71 SW7       29.71S HX  91           
6HR MIN TEMP:  79; 6HR MAX TEMP:  85;                                

APPLETON       PTSUNNY   81  68  65 SW9       29.71S HX  83           
CLINTONVILLE   CLOUDY    81  71  72 W5        29.71S HX  84           
6HR MIN TEMP:  78; 6HR MAX TEMP:  81;                                

OSHKOSH        FAIR      83  73  72 SW6       29.72S HX  89           
6HR MIN TEMP:  78; 6HR MAX TEMP:  84;                                

$$
 
WIZ032>034-041-042-053>061-190100-
SOUTHWEST WISCONSIN
  
CITY           SKY/WX    TMP DP  RH WIND       PRES   REMARKS
LA CROSSE      PTSUNNY   88  77  69 S8        29.66F HX 100           
6HR MIN TEMP:  79; 6HR MAX TEMP:  89;                                

SPARTA         PTSUNNY   82  75  78 CALM      29.70F HX  88           
6HR MIN TEMP:  75; 6HR MAX TEMP:  82;                                

VIROQUA        FAIR      85  80  85 S10       29.72F HX  99           
6HR MIN TEMP:  75; 6HR MAX TEMP:  86;                                

BOSCOBEL       FAIR      89  78  70 SW5       29.69F HX 103           
6HR MIN TEMP:  81; 6HR MAX TEMP:  89;                                

PRAIRIE DU CHI FAIR      88  75  65 S3        29.68F HX  98           
6HR MIN TEMP:  80; 6HR MAX TEMP:  92;                                

PLATTEVILLE    FAIR      86  81  84 S10       29.73F HX 102           
6HR MIN TEMP:  80; 6HR MAX TEMP:  87;                                

$$

WIZ056-057-062-063-064-067-068-190100-
SOUTH CENTRAL WISCONSIN
  
CITY           SKY/WX    TMP DP  RH WIND       PRES   REMARKS
REEDSBURG      FAIR      83  77  80 S6        29.72S HX  92           
6HR MIN TEMP:  78; 6HR MAX TEMP:  85; 6HR PCP:  0.21;                

BARABOO/DELLS  FAIR      84  74  71 S8        29.73S HX  90           
6HR MIN TEMP:  78; 6HR MAX TEMP:  84;                                

LONE ROCK      FAIR      86  77  74 S6        29.70F HX  97           
6HR MIN TEMP:  79; 6HR MAX TEMP:  86;                                

MINERAL POINT  FAIR      88  81  79 S8        29.74S HX 105           
MADISON        FAIR      86  75  69 SW8       29.73S HX  95           
6HR MIN TEMP:  78; 6HR MAX TEMP:  86;                                

MIDDLETON      FAIR      87  75  68 SW7       29.74S HX  96           
WATERTOWN      PTSUNNY   83  78  83 SW9       29.74S HX  93           
6HR MIN TEMP:  78; 6HR MAX TEMP:  85; 6HR PCP:  0.01;                

MONROE         FAIR      85  76  73 SW10      29.75F HX  94           
6HR MIN TEMP:  78; 6HR MAX TEMP:  86; 6HR PCP:  0.24;                

JANESVILLE     MOSUNNY   86  77  74 S7        29.74F HX  97           
$$
 
WIZ051-052-058>065-066-070>072-190100-
SOUTHEAST WISCONSIN
  
CITY           SKY/WX    TMP DP  RH WIND       PRES   REMARKS
MILWAUKEE      FAIR      86  74  67 SW14      29.73F HX  94           
6HR MIN TEMP:  77; 6HR MAX TEMP:  87;                                

WAUKESHA       MOSUNNY   82  73  74 SW8G18    29.76F HX  88           
MILWAUKEE/TIMM MOSUNNY   84  72  65 SW9G17    29.75F HX  89           
RACINE         FAIR      85  75  72 SW10G20   29.75F HX  93           
6HR MIN TEMP:  75; 6HR MAX TEMP:  86;                                

KENOSHA        FAIR      86  78  77 SW12      29.75F HX  98           
6HR MIN TEMP:  78; 6HR MAX TEMP:  87;                                

FOND DU LAC    FAIR      86  74  67 SW8       29.73S HX  94           
6HR MIN TEMP:  80; 6HR MAX TEMP:  86;                                

SHEBOYGAN      FAIR      84  72  67 W15       29.72S HX  89           
6HR MIN TEMP:  78; 6HR MAX TEMP:  87;                                

WEST BEND      NOT AVBL                                               
JUNEAU         FAIR      83  74  74 SW7       29.75F HX  90           
6HR MIN TEMP:  76; 6HR MAX TEMP:  84;                                

$$

LSZ147-162-190100-
LAKE SUPERIOR
  
STATION/POSITION TIME  TEMP    WIND        PRES    WAVE
                       AIR SEA DIR/SP/G            HT/PER
                 (UTC) (F)     (DEG/KT/KT) (MB)    (FT/S)
W MID LAKE BUOY  2250   56 50  120/  4/  6 1001.8F   0
$$
 
LMZ867-665-643>646-190100-
LAKE MICHIGAN
  
STATION/POSITION TIME  TEMP    WIND        PRES    WAVE
                       AIR SEA DIR/SP/G            HT/PER
                 (UTC) (F)     (DEG/KT/KT) (MB)    (FT/S)
CHAMBERS ISLAND  2340   77     190/  6/ 12 1007.1S
S GREEN BAY BUOY 2330   80 74  240/  8/ 10 1006.1R
N MID LAKE BUOY  2340   68 65  190/ 14/ 17 1005.4R
NORTHPORT PIER   2340   78     190/  2/  6 1004.7F
KEWAUNEE LAKESHO 2330   83     240/  9/ 18 1005.4R
SHEBOYGAN LAKESH 2300   85     230/ 19/ 23 1005.6F
ATWATER BUOY     2300   77     240/ 16/ 21 1007.3    2/ 5
MILWAUKEE LAKESH 2350   84     240/ 15/ 19   N/A
S MID LAKE BUOY  2340   72 69  200/  8/ 10 1008.2R
KENOSHA   LAKESH 2300   85